Regional Weather Roundup
Issued by NWS

Home | Current Version | Previous Version | Graphics & Text | Print | Product List | Glossary On
Versions: 1 2 3 4 5 6 7 8 9 10 11 12 13 14 15 16 17 18 19 20 21 22 23 24 25 26 27 28 29 30 31 32 33 34 35 36 37 38 39 40 41 42 43 44 45 46 47 48 49 50
000
ASUS43 KTOP 071408
RWRKS

WEATHER ROUNDUP FOR KANSAS
NATIONAL WEATHER SERVICE GOODLAND KS
900 AM CDT TUE JUL 07 2015

NOTE:  "FAIR" INDICATES FEW OR NO CLOUDS BELOW 12,000 FEET WITH NO
SIGNIFICANT WEATHER AND/OR OBSTRUCTIONS TO VISIBILITY.

KSZ001>006-013>018-027>032-041>047-071500-
NORTHWEST KANSAS

CITY           SKY/WX    TMP DP  RH WIND       PRES   REMARKS
GOODLAND       SUNNY     59  53  80 E7        30.25R HAZE
HAYS           SUNNY     64  46  52 NE20      30.17R
HILL CITY      SUNNY     66  50  56 E12       30.20S HAZE
RUSSELL        LGT RAIN  65  51  60 NE15G23   30.15R
$$

KSZ061>065-074>080-084>089-071500-
SOUTHWEST KANSAS

CITY           SKY/WX    TMP DP  RH WIND       PRES   REMARKS
DODGE CITY     CLOUDY    61  54  77 NE16G24   30.16R HAZE
ELKHART          N/A     63  52  67 NE12        N/A
GARDEN CITY    MOSUNNY   62  54  74 NE16      30.18S HAZE
GREAT BEND     MOSUNNY   63  54  72 NE15      30.15R
LIBERAL        MOSUNNY   64  54  68 NE10      30.17R
PRATT            N/A     63  57  82 NE13      30.12R HAZE
$$

KSZ066>073-081>083-090>101-071500-
SOUTHEAST KANSAS

CITY           SKY/WX    TMP DP  RH WIND       PRES   REMARKS
CHANUTE        LGT RAIN  63  61  93 N15       30.02R FOG
COFFEYVILLE    CLOUDY    69  68  96 N13       29.98R
HUTCHINSON     LGT RAIN  66  59  78 N15G23    30.09R
MEDICINE LODGE   N/A     65  63  93 N14G20    30.08R
NEWTON         PTSUNNY   63  55  77 NE15G21   30.10R
PARSONS        CLOUDY    66  64  93 N12G21    30.00R FOG
WICHITA INTL   LGT RAIN  65  62  90 NE15      30.06R FOG
WICHITA JABRA  LGT RAIN  64  64 100 NE17      30.06R FOG
WICHITA MCCONL RAIN      64  63  94 NE12      30.06R FOG
WINFIELD       CLOUDY    64  61  90 NE15      30.05R FOG
$$

KSZ007>012-019>026-033>040-048>060-102>105-071500-
NORTHEAST KANSAS

CITY           SKY/WX    TMP DP  RH WIND       PRES   REMARKS
CONCORDIA      SUNNY     64  51  62 NE15G22   30.15S
EMPORIA        CLOUDY    63  61  93 NE9       30.06S FOG
LAWRENCE       CLOUDY    64  58  80 N12       30.07R
MANHATTAN      PTSUNNY   64  52  64 NE17      30.11R
MARYSVILLE     SUNNY     63  52  67 NE12G17   30.14R
OLATHE IND     CLOUDY    64  62  93 N10       30.06R FOG
OLATHE EXE     CLOUDY    63  61  93 N6        30.04R FOG
SALINA         PTSUNNY   66  50  56 NE20      30.12R
TOPEKA BILLARD CLOUDY    63  57  81 N14       30.08R
TOPEKA FORBES  CLOUDY    64  58  80 N12       30.08R HAZE
$$


USA.gov is the U.S. government's official web portal to all federal, state and local government web resources and services.